User: anonymous   Login
Location: Bowman Observatory
(41.0326°N, 73.6210°W)
Time: 22:52:57
(UTC-04:00)
Language:

Cosmos 2297 - Orbit

View from above orbital plane
View from above orbital plane
View from above satellite
View from above satellite

Ground track
Ground track

The orbit data is extracted from the following two-line orbital elements,

1 23404U 94077A   17147.61749781 +.00000171 +00000-0 +11597-3 0  9998
2 23404 071.0153 336.0358 0015560 187.5426 172.5464 14.13499883161120
Epoch (UTC): 27 May 2017 14:49:11
Eccentricity: 0.0015560
inclination: 71.0153°
perigee height: 836 km
apogee height: 858 km
right ascension of ascending node: 336.0358°
argument of perigee: 187.5426°
revolutions per day: 14.13499883
mean anomaly at epoch: 172.5464°
orbit number at epoch: 16112

The dashed part of the orbit path shows where the satellite is in the earth's shadow,  

DLR